Location: Unspecified
(0.0000°N, 0.0000°E)
Time: 22:53:25
(UTC+00:00)

N. Korean satellite - Pass Details

Date: 25 October 2020
Orbit: 452 x 505 km, 97.2° (Epoch: 30 October)

Event Time Altitude Azimuth Distance (km) Brightness Sun altitude
Rises 04:55:02 0° 19° (NNE) 2,449 10.2 -12.0°
Reaches altitude 10° 04:57:05 10° 24° (NNE) 1,584 9.3 -11.5°
Maximum altitude 05:00:23 51° 101° (E) 583 7.4 -10.7°
Drops below altitude 10° 05:03:44 10° 178° (S) 1,611 9.4 -9.9°
Sets 05:05:50 0° 183° (S) 2,497 10.3 -9.3°
